VE3TEJ Weather Reports


time (UTC)temp
C
wind
direction
speed
KPH
gust
KPH
rain 1hr
cm
rain 24hr
cm
rain mn
cm
humidity
%
barometer
mb
20260510095246 3 289 0.0 1.6 0.00 0.48 0.00 77 1011.8
20260510094745 2 289 0.0 0.0 0.00 0.48 0.00 78 1011.5
20260510094245 2 290 0.0 0.0 0.00 0.48 0.00 78 1011.5
20260510093747 2 288 0.0 0.0 0.00 0.48 0.00 79 1011.2
20260510093246 2 288 0.0 0.0 0.00 0.48 0.00 80 1011.2
20260510092746 2 288 0.0 0.0 0.00 0.48 0.00 78 1011.0
20260510092246 3 288 0.0 0.0 0.00 0.48 0.00 77 1011.0
20260510091745 3 290 0.0 0.0 0.00 0.48 0.00 75 1010.9
20260510091246 3 289 0.0 0.0 0.00 0.48 0.00 75 1011.0
20260510090746 3 290 0.0 0.0 0.00 0.48 0.00 73 1010.7
20260510090245 4 293 0.0 1.6 0.00 0.48 0.00 71 1010.7
20260510085745 4 314 1.6 3.2 0.00 0.48 0.00 71 1010.7
20260510085247 4 302 1.6 3.2 0.00 0.48 0.00 71 1010.2
20260510084746 4 313 1.6 3.2 0.00 0.48 0.00 71 1010.4
20260510084246 4 314 3.2 3.2 0.00 0.48 0.00 70 1010.3
20260510084209 4 314 3.2 3.2 0.00 0.48 0.00 70 1010.3
20260510083746 4 301 3.2 3.2 0.00 0.48 0.00 69 1010.1
20260510083245 5 316 3.2 3.2 0.00 0.48 0.00 70 1010.1
20260510082745 5 343 3.2 4.8 0.00 0.48 0.00 70 1009.9
20260510082247 5 301 1.6 3.2 0.00 0.48 0.00 69 1009.9
20260510081746 5 321 3.2 4.8 0.00 0.48 0.00 68 1009.8
20260510081245 5 307 3.2 3.2 0.00 0.48 0.00 69 1009.8
20260510080747 5 331 3.2 3.2 0.00 0.48 0.00 68 1009.8
20260510080246 5 313 3.2 3.2 0.00 0.48 0.00 67 1009.5
20260510075746 5 300 3.2 3.2 0.00 0.48 0.00 67 1009.7
20260510075246 5 316 3.2 3.2 0.00 0.48 0.00 68 1009.8
20260510074745 5 343 3.2 4.8 0.00 0.48 0.00 67 1009.6
20260510074245 5 324 3.2 4.8 0.00 0.48 0.00 67 1009.5
20260510073747 5 319 3.2 4.8 0.00 0.48 0.00 67 1009.7
20260510073246 5 317 3.2 4.8 0.00 0.48 0.00 67 1009.4
20260510072746 5 327 3.2 4.8 0.00 0.48 0.00 66 1009.6
20260510072246 5 316 1.6 3.2 0.00 0.48 0.00 66 1009.3
20260510071745 5 334 3.2 4.8 0.00 0.48 0.00 66 1009.1
20260510071245 6 328 3.2 4.8 0.00 0.48 0.00 65 1009.3
20260510070745 6 331 8.0 9.7 0.00 0.48 0.00 65 1009.4
20260510070247 6 308 4.8 4.8 0.00 0.48 0.00 65 1009.3
20260510065746 6 9 9.7 11.3 0.00 0.48 0.00 65 1009.4
20260510065246 6 323 4.8 4.8 0.00 0.48 0.00 65 1009.6
20260510064746 6 348 8.0 8.0 0.00 0.48 0.00 67 1009.2
20260510064245 6 313 3.2 3.2 0.00 0.48 0.00 67 1009.1
20260510063745 6 313 0.0 4.8 0.00 0.48 0.00 67 1009.1
20260510063247 6 321 3.2 4.8 0.00 0.48 0.00 66 1009.1
20260510062746 7 315 3.2 4.8 0.00 0.48 0.00 66 1009.1
20260510062246 7 342 4.8 8.0 0.00 0.48 0.00 66 1009.1
20260510061746 7 298 3.2 3.2 0.00 0.48 0.00 66 1009.1
20260510061245 7 318 8.0 9.7 0.00 0.48 0.00 65 1009.3
20260510060745 7 330 4.8 8.0 0.00 0.48 0.00 66 1009.0
20260510060247 7 314 4.8 4.8 0.00 0.48 0.00 65 1009.0
20260510055746 7 358 8.0 9.7 0.00 0.48 0.00 65 1009.1
20260510055246 7 328 4.8 8.0 0.00 0.48 0.00 65 1008.7
20260510054746 7 307 1.6 8.0 0.00 0.48 0.00 66 1008.7
20260510054245 7 314 3.2 3.2 0.00 0.48 0.00 66 1008.6
20260510054209 7 314 3.2 3.2 0.00 0.48 0.00 66 1008.6
20260510053745 7 300 3.2 3.2 0.00 0.48 0.00 65 1008.8
20260510053247 7 292 3.2 4.8 0.00 0.48 0.00 64 1008.6
20260510052746 8 339 8.0 9.7 0.00 0.48 0.00 64 1008.5
20260510052710 8 339 8.0 9.7 0.00 0.48 0.00 64 1008.5
20260510052246 8 298 4.8 8.0 0.00 0.48 0.00 64 1008.5
20260510051746 8 305 3.2 3.2 0.00 0.48 0.00 65 1008.5
20260510051245 8 307 3.2 3.2 0.00 0.48 0.00 64 1008.2
20260510050745 8 322 3.2 3.2 0.00 0.48 0.00 64 1008.2
20260510050245 8 315 3.2 3.2 0.00 0.48 0.00 64 1008.2
20260510045746 8 340 4.8 8.0 0.00 0.48 0.00 64 1008.2
20260510045246 8 298 1.6 3.2 0.00 0.48 0.00 65 1008.1
20260510044746 8 319 3.2 3.2 0.00 0.48 0.00 66 1008.0
20260510044246 8 300 1.6 3.2 0.00 0.48 0.00 66 1007.6
20260510044210 8 300 1.6 3.2 0.00 0.48 0.00 66 1007.6
20260510043745 8 326 3.2 3.2 0.00 0.48 0.00 65 1007.6
20260510043245 8 312 1.6 3.2 0.00 0.48 0.00 64 1007.5
20260510042747 8 303 0.0 3.2 0.00 0.48 0.00 64 1007.6
20260510042246 9 305 1.6 3.2 0.00 0.48 0.00 64 1007.7
20260510041746 9 302 1.6 3.2 0.00 0.48 0.00 64 1007.3
20260510041246 9 316 3.2 4.8 0.00 0.48 0.00 64 1007.2
20260510040745 9 304 3.2 3.2 0.00 0.48 0.00 63 1007.3
20260510040247 9 339 3.2 4.8 0.00 0.48 0.00 63 1007.3
20260510035746 9 354 4.8 8.0 0.00 0.48 0.48 64 1007.3
20260510035246 9 345 8.0 9.7 0.00 0.48 0.48 63 1007.3
20260510034745 10 346 4.8 8.0 0.00 0.48 0.48 63 1007.0
20260510034246 10 347 11.3 12.9 0.00 0.48 0.48 65 1006.7
20260510034209 10 347 11.3 12.9 0.00 0.48 0.48 65 1006.7
20260510033745 10 331 4.8 4.8 0.00 0.48 0.48 65 1006.8
20260510033245 10 333 4.8 8.0 0.00 0.48 0.48 65 1006.8
20260510032746 10 302 3.2 3.2 0.00 0.48 0.48 65 1006.6
20260510032246 10 296 3.2 3.2 0.00 0.48 0.48 65 1006.6
20260510031746 10 303 1.6 1.6 0.00 0.48 0.48 67 1006.7
20260510031246 10 318 3.2 3.2 0.00 0.48 0.48 64 1006.5
20260510030745 10 295 1.6 1.6 0.00 0.48 0.48 65 1006.0
20260510030245 10 301 3.2 3.2 0.00 0.48 0.48 66 1006.2
20260510025747 10 296 1.6 3.2 0.00 0.48 0.48 66 1006.3
20260510025246 10 305 1.6 4.8 0.00 0.48 0.48 66 1006.3
20260510024746 10 320 3.2 3.2 0.00 0.48 0.48 65 1006.0
20260510024246 10 309 3.2 4.8 0.00 0.48 0.48 65 1006.3
20260510024209 10 309 3.2 4.8 0.00 0.48 0.48 65 1006.3
20260510023745 11 330 4.8 4.8 0.00 0.48 0.48 64 1006.1
20260510023245 11 2 9.7 12.9 0.00 0.48 0.48 65 1006.4
20260510022747 11 324 8.0 9.7 0.00 0.48 0.48 65 1005.9
20260510022246 12 302 3.2 8.0 0.00 0.48 0.48 64 1005.4
20260510021746 12 350 4.8 8.0 0.00 0.48 0.48 64 1005.4
20260510021245 12 1 4.8 9.7 0.00 0.48 0.48 65 1005.4
20260510021209 12 1 4.8 9.7 0.00 0.48 0.48 65 1005.4
20260510020745 12 6 4.8 4.8 0.00 0.48 0.48 64 1005.5
20260510020245 12 310 4.8 8.0 0.00 0.48 0.48 64 1005.2
20260510015746 12 289 4.8 4.8 0.00 0.48 0.48 65 1005.4
20260510015246 12 312 4.8 8.0 0.00 0.48 0.48 65 1005.3
20260510014746 12 6 3.2 4.8 0.00 0.48 0.48 64 1005.1
20260510014245 12 326 4.8 8.0 0.00 0.48 0.48 65 1005.0
20260510013745 12 310 1.6 3.2 0.00 0.48 0.48 64 1004.5
20260510013245 12 324 4.8 8.0 0.00 0.48 0.48 67 1004.8
20260510012746 12 350 4.8 8.0 0.00 0.48 0.48 66 1005.0
20260510012246 11 332 8.0 9.7 0.00 0.48 0.48 85 1004.6
20260510011746 12 289 0.0 0.0 0.00 0.48 0.48 88 1004.4
20260510011245 12 290 0.0 0.0 0.00 0.48 0.48 88 1004.4
20260510011209 12 290 0.0 0.0 0.00 0.48 0.48 88 1004.4
20260510010745 12 289 0.0 0.0 0.00 0.48 0.48 87 1004.2
20260510010247 12 289 0.0 0.0 0.00 0.48 0.48 86 1004.2
20260510005746 12 290 0.0 0.0 0.00 0.48 0.48 86 1004.0
20260510005710 12 290 0.0 0.0 0.00 0.48 0.48 86 1004.0
20260510005246 13 291 0.0 1.6 0.00 0.48 0.48 86 1004.1
20260510004746 12 292 1.6 1.6 0.00 0.48 0.48 87 1004.2
20260510004245 12 306 1.6 3.2 0.00 0.48 0.48 87 1004.0
20260510004209 12 306 1.6 3.2 0.00 0.48 0.48 87 1004.0
20260510003745 12 324 3.2 3.2 0.00 0.48 0.48 88 1003.8
20260510003245 12 294 0.0 1.6 0.00 0.48 0.48 88 1003.5
20260510002746 12 285 0.0 0.0 0.00 0.48 0.48 88 1003.2
20260510002711 12 285 0.0 0.0 0.00 0.48 0.48 88 1003.2
20260510002246 12 279 1.6 1.6 0.00 0.48 0.48 88 1003.1
20260510001746 12 287 0.0 1.6 0.00 0.48 0.48 87 1002.9
20260510001245 12 285 0.0 0.0 0.00 0.48 0.48 87 1002.9
20260510000745 12 286 0.0 0.0 0.00 0.48 0.48 86 1003.1
20260510000248 12 285 0.0 0.0 0.00 0.48 0.48 86 1002.8
20260509235746 13 287 0.0 0.0 0.00 0.48 0.48 85 1002.9
20260509235246 13 284 0.0 0.0 0.00 0.48 0.48 85 1002.8
20260509234746 13 286 0.0 0.0 0.00 0.48 0.48 84 1002.7
20260509234245 13 276 0.0 1.6 0.00 0.48 0.48 83 1002.7
20260509233745 13 285 0.0 0.0 0.00 0.48 0.48 83 1002.8
20260509233246 13 287 0.0 0.0 0.00 0.48 0.48 83 1002.7
20260509232746 13 287 0.0 1.6 0.00 0.48 0.48 83 1002.7
20260509232246 13 274 1.6 1.6 0.00 0.48 0.48 84 1002.6
20260509231745 13 286 0.0 0.0 0.00 0.48 0.48 84 1002.5
20260509231245 13 280 0.0 1.6 0.00 0.48 0.48 83 1002.4
20260509230747 13 281 0.0 1.6 0.00 0.48 0.48 82 1002.5
20260509230246 13 268 1.6 3.2 0.00 0.48 0.48 82 1002.3
20260509225746 13 287 0.0 1.6 0.00 0.48 0.48 81 1002.4
20260509225246 13 285 0.0 0.0 0.00 0.48 0.48 82 1002.1
20260509224745 13 280 1.6 1.6 0.00 0.48 0.48 83 1002.1
20260509224245 13 286 1.6 1.6 0.00 0.48 0.48 82 1002.0
20260509223747 13 287 1.6 1.6 0.00 0.48 0.48 84 1001.8
20260509223246 13 286 1.6 3.2 0.00 0.48 0.48 83 1001.9
20260509222746 13 255 1.6 3.2 0.03 0.48 0.48 84 1001.7
20260509222246 12 259 1.6 3.2 0.03 0.48 0.48 85 1001.8
20260509221746 12 264 3.2 3.2 0.03 0.48 0.48 87 1001.7
20260509221246 12 298 3.2 3.2 0.03 0.48 0.48 88 1001.6
20260509220747 12 273 1.6 3.2 0.03 0.48 0.48 89 1001.6
20260509220246 12 283 1.6 1.6 0.03 0.48 0.48 90 1001.5
20260509215746 12 282 1.6 4.8 0.03 0.48 0.48 90 1001.4
20260509215245 11 274 1.6 1.6 0.03 0.48 0.48 91 1001.7
20260509214745 11 223 3.2 3.2 0.03 0.48 0.48 91 1001.8
20260509214245 11 282 0.0 1.6 0.05 0.48 0.48 91 1001.8
20260509213746 11 281 1.6 1.6 0.08 0.48 0.48 91 1001.9
20260509213246 11 278 1.6 3.2 0.36 0.48 0.48 91 1001.8
20260509212746 11 282 3.2 3.2 0.46 0.46 0.46 91 1002.2
20260509212245 10 278 1.6 1.6 0.46 0.46 0.46 91 1002.0
20260509211745 10 286 1.6 3.2 0.46 0.46 0.46 91 1002.2
20260509211245 10 282 0.0 1.6 0.46 0.46 0.46 91 1002.1
20260509210746 10 287 0.0 1.6 0.46 0.46 0.46 90 1002.2
20260509210246 10 281 1.6 3.2 0.46 0.46 0.46 90 1002.3
20260509205746 10 286 1.6 1.6 0.46 0.46 0.46 89 1002.0
20260509205245 10 274 1.6 3.2 0.46 0.46 0.46 88 1002.1
20260509204745 10 291 3.2 3.2 0.46 0.46 0.46 87 1002.3
20260509204247 10 287 1.6 3.2 0.43 0.43 0.43 85 1002.4
20260509203746 11 277 4.8 8.0 0.41 0.41 0.41 83 1002.7
20260509203245 13 289 3.2 4.8 0.13 0.13 0.13 82 1003.1
20260509202747 14 278 3.2 3.2 0.00 0.00 0.00 79 1002.0
20260509202246 14 284 1.6 1.6 0.00 0.00 0.00 78 1001.7
20260509201746 15 256 4.8 8.0 0.00 0.00 0.00 75 1001.5
20260509201246 15 256 3.2 3.2 0.00 0.00 0.00 73 1001.4
20260509200745 15 256 4.8 8.0 0.00 0.00 0.00 73 1001.3
20260509200245 15 235 4.8 9.7 0.00 0.00 0.00 73 1001.5
20260509195745 15 280 3.2 8.0 0.00 0.00 0.00 72 1001.5
20260509195246 15 286 3.2 3.2 0.00 0.00 0.00 72 1001.6
20260509194746 15 264 9.7 11.3 0.00 0.00 0.00 71 1001.4
20260509194246 15 266 3.2 3.2 0.00 0.00 0.00 72 1001.6
20260509193745 15 208 8.0 11.3 0.00 0.00 0.00 71 1001.6
20260509193245 15 251 4.8 9.7 0.00 0.00 0.00 71 1001.6
20260509192747 15 318 3.2 8.0 0.00 0.00 0.00 71 1001.4
20260509192246 15 289 3.2 3.2 0.00 0.00 0.00 72 1001.5
20260509191746 15 250 3.2 8.0 0.00 0.00 0.00 72 1001.7
20260509191246 15 277 4.8 8.0 0.00 0.00 0.00 72 1001.7
20260509190745 15 243 8.0 9.7 0.00 0.00 0.00 72 1002.1
20260509190245 15 238 4.8 9.7 0.00 0.00 0.00 72 1001.7
20260509185747 15 246 8.0 11.3 0.00 0.00 0.00 71 1001.6
20260509185246 15 271 3.2 9.7 0.00 0.00 0.00 72 1001.8
20260509184746 15 255 9.7 11.3 0.00 0.00 0.00 73 1001.6
20260509184246 15 256 4.8 11.3 0.00 0.00 0.00 73 1001.9
20260509183745 15 271 4.8 9.7 0.00 0.00 0.00 74 1001.9
20260509183245 15 286 4.8 8.0 0.00 0.00 0.00 74 1001.9
20260509182746 15 287 3.2 3.2 0.00 0.00 0.00 73 1002.3
20260509182246 15 239 3.2 4.8 0.00 0.00 0.00 74 1002.5
20260509181747 14 262 4.8 4.8 0.00 0.00 0.00 75 1002.4
20260509181246 14 235 3.2 4.8 0.00 0.00 0.00 75 1002.5
20260509180746 15 291 4.8 8.0 0.00 0.00 0.00 74 1003.0
20260509180245 15 262 4.8 4.8 0.00 0.00 0.00 74 1002.8
20260509175745 15 268 3.2 11.3 0.00 0.00 0.00 74 1002.6
20260509175247 15 261 3.2 4.8 0.00 0.00 0.00 73 1002.3
20260509174746 16 280 3.2 4.8 0.00 0.00 0.00 72 1002.3
20260509174246 16 235 8.0 9.7 0.00 0.00 0.00 71 1002.6
20260509173746 17 299 4.8 9.7 0.00 0.00 0.00 69 1002.2
20260509173245 16 267 3.2 8.0 0.00 0.00 0.00 70 1002.4
20260509172745 15 332 4.8 8.0 0.00 0.00 0.00 74 1002.3
20260509172247 16 269 4.8 9.7 0.00 0.00 0.00 72 1002.5
20260509171746 16 250 3.2 3.2 0.00 0.00 0.00 73 1002.8
20260509171246 16 272 4.8 9.7 0.00 0.00 0.00 71 1002.7
20260509170745 16 257 4.8 8.0 0.00 0.00 0.00 71 1002.7
20260509170245 17 243 4.8 8.0 0.00 0.00 0.00 70 1002.8
20260509165745 17 251 1.6 4.8 0.00 0.00 0.00 71 1003.0
20260509165246 17 251 1.6 4.8 0.00 0.00 0.00 71 1003.0
20260509164746 16 257 4.8 8.0 0.00 0.00 0.00 71 1003.1
20260509164247 16 256 4.8 8.0 0.00 0.00 0.00 71 1003.1
20260509163746 17 268 3.2 8.0 0.00 0.00 0.00 70 1003.1
20260509163247 16 261 3.2 8.0 0.00 0.00 0.00 73 1003.1
20260509162746 16 274 1.6 4.8 0.00 0.00 0.00 71 1003.5
20260509162246 16 260 3.2 9.7 0.00 0.00 0.00 71 1003.1
20260509161746 16 262 1.6 4.8 0.00 0.00 0.00 71 1003.3
20260509161245 16 275 1.6 4.8 0.00 0.00 0.00 70 1003.6
20260509160745 16 284 3.2 3.2 0.00 0.00 0.00 72 1003.7
20260509160247 16 258 1.6 4.8 0.00 0.00 0.00 72 1003.8
20260509155746 15 288 4.8 4.8 0.00 0.00 0.00 73 1004.1
20260509155246 15 267 3.2 4.8 0.00 0.00 0.00 72 1004.1
20260509154746 16 267 3.2 3.2 0.00 0.00 0.00 72 1004.2
20260509154245 16 256 3.2 3.2 0.00 0.00 0.00 71 1004.2
20260509153745 17 300 3.2 4.8 0.00 0.00 0.00 68 1004.0
20260509153247 16 271 0.0 4.8 0.00 0.00 0.00 69 1004.0
20260509152746 17 258 4.8 8.0 0.00 0.00 0.00 69 1004.1
20260509152245 16 283 3.2 4.8 0.00 0.00 0.00 71 1004.0
20260509151747 16 251 3.2 4.8 0.00 0.00 0.00 71 1003.8
20260509151246 16 220 3.2 8.0 0.00 0.00 0.00 74 1003.8
20260509150746 15 287 3.2 3.2 0.00 0.00 0.00 76 1003.7
20260509150245 15 229 3.2 8.0 0.00 0.00 0.00 76 1004.1
20260509145747 15 273 1.6 8.0 0.00 0.00 0.00 75 1004.1
20260509145246 15 287 1.6 8.0 0.00 0.00 0.00 76 1004.1
20260509144746 15 267 3.2 8.0 0.00 0.00 0.00 76 1004.2
20260509144246 15 300 4.8 8.0 0.00 0.00 0.00 74 1003.9
20260509143746 15 284 4.8 9.7 0.00 0.00 0.00 74 1004.0
20260509143245 15 272 1.6 3.2 0.00 0.00 0.00 75 1004.0
20260509142745 15 289 1.6 4.8 0.00 0.00 0.00 76 1004.2
20260509142246 14 270 3.2 3.2 0.00 0.00 0.00 77 1004.1
20260509141745 15 270 4.8 9.7 0.00 0.00 0.00 75 1004.0
20260509141247 14 245 3.2 3.2 0.00 0.00 0.00 78 1003.9
20260509140746 13 267 3.2 8.0 0.00 0.00 0.00 78 1004.1
20260509140246 13 266 4.8 8.0 0.00 0.00 0.00 79 1004.3
20260509135745 12 282 1.6 3.2 0.00 0.00 0.00 83 1004.2
20260509135245 12 267 3.2 4.8 0.00 0.00 0.00 85 1004.2
20260509134746 12 269 4.8 8.0 0.00 0.00 0.00 85 1004.3
20260509134245 11 271 3.2 4.8 0.00 0.00 0.00 86 1004.3
20260509133746 11 287 3.2 4.8 0.00 0.00 0.00 88 1004.5
20260509133246 11 282 0.0 0.0 0.00 0.00 0.00 90 1004.3
20260509132746 11 287 1.6 1.6 0.00 0.00 0.00 91 1004.4
20260509132245 11 286 0.0 1.6 0.00 0.00 0.00 92 1004.5
20260509131745 10 281 1.6 3.2 0.00 0.00 0.00 92 1004.5
20260509131245 10 265 1.6 3.2 0.00 0.00 0.00 93 1004.8
20260509130746 10 267 1.6 4.8 0.00 0.00 0.00 93 1004.5
20260509130245 10 277 1.6 3.2 0.00 0.00 0.00 94 1004.4
20260509125745 10 254 1.6 3.2 0.00 0.00 0.00 94 1004.7
20260509125246 10 257 1.6 3.2 0.00 0.00 0.00 94 1004.6
20260509124746 10 285 1.6 1.6 0.00 0.00 0.00 94 1004.5
20260509124246 10 271 1.6 1.6 0.00 0.00 0.00 94 1004.6
20260509123745 10 260 1.6 4.8 0.00 0.00 0.00 94 1004.7
20260509123245 10 280 1.6 3.2 0.00 0.00 0.00 94 1004.8
20260509122746 10 285 1.6 1.6 0.00 0.00 0.00 94 1004.7
20260509122246 9 283 0.0 1.6 0.00 0.00 0.00 94 1004.7
20260509121746 9 268 1.6 3.2 0.00 0.00 0.00 94 1004.8
20260509121245 9 277 1.6 3.2 0.00 0.00 0.00 94 1004.6
20260509120747 9 279 3.2 3.2 0.00 0.00 0.00 94 1004.8
20260509120246 9 279 1.6 1.6 0.00 0.00 0.00 94 1004.8
20260509115746 9 285 1.6 1.6 0.00 0.00 0.00 94 1004.8
20260509115247 9 279 1.6 1.6 0.00 0.00 0.00 94 1004.8
20260509114745 9 276 1.6 1.6 0.00 0.00 0.00 94 1005.1
20260509114247 9 292 1.6 3.2 0.00 0.00 0.00 94 1005.1
20260509113746 9 283 1.6 1.6 0.00 0.00 0.00 94 1005.1
20260509113246 9 286 0.0 1.6 0.00 0.00 0.00 94 1005.0
20260509112745 9 270 3.2 4.8 0.00 0.00 0.00 94 1004.9
20260509112245 9 282 1.6 1.6 0.00 0.00 0.00 94 1004.9
20260509111747 9 268 1.6 3.2 0.00 0.00 0.00 94 1004.7
20260509111246 9 305 3.2 4.8 0.00 0.00 0.00 94 1004.8
20260509110745 9 240 1.6 3.2 0.00 0.00 0.00 94 1004.6
20260509110246 9 260 1.6 3.2 0.00 0.00 0.00 94 1004.5
20260509105746 9 286 1.6 3.2 0.00 0.00 0.00 93 1004.6
20260509105246 9 276 1.6 1.6 0.00 0.00 0.00 93 1004.6
20260509104745 9 247 1.6 3.2 0.00 0.00 0.00 93 1004.7
20260509104247 9 274 1.6 1.6 0.00 0.00 0.00 93 1004.3
20260509103746 9 271 1.6 3.2 0.00 0.00 0.00 93 1004.6
20260509103246 9 277 0.0 1.6 0.00 0.00 0.00 93 1004.8
20260509102745 9 287 1.6 3.2 0.00 0.00 0.00 93 1004.6
20260509102245 9 287 0.0 1.6 0.00 0.00 0.00 92 1004.6
20260509101747 9 277 0.0 1.6 0.00 0.00 0.00 92 1005.0
20260509101246 9 273 3.2 3.2 0.00 0.00 0.00 92 1004.9
20260509100746 9 288 1.6 3.2 0.00 0.00 0.00 92 1004.9
20260509100245 9 287 0.0 1.6 0.00 0.00 0.00 92 1005.0
20260509095745 10 288 1.6 3.2 0.00 0.00 0.00 92 1004.9